When you browse on this site, cookies collect data to enhance your experience and personalize the content and advertising you see.
Visit our Privacy Policy to learn more. By continuing to use the site, you agree to this use of cookies and data.
  • In Hungary
  • List of Countries
  • For 7 days
  • Water Temperature
  • Weather Map
  • News
  • Weather Widgets
  • user-avatar
    Login

    Hourly Weather Selidovo

    Today, 13 November, Wednesday

    Time Temperature Precipitation Wind Pressure Humidity
    00:00 +9°C° 0 mm 2 mps 754 mmHg 85%
    01:00 +9°C° 0 mm 3 mps 755 mmHg 85%
    02:00 +9°C° 0 mm 3 mps 755 mmHg 85%
    03:00 +8°C° 0 mm 3 mps 755 mmHg 86%
    04:00 +8°C° 0 mm 3 mps 754 mmHg 86%
    05:00 +8°C° 0 mm 3 mps 754 mmHg 87%
    06:00 +7°C° 0 mm 4 mps 755 mmHg 83%
    07:00 +8°C° 0 mm 4 mps 755 mmHg 79%
    08:00 +8°C° 0 mm 5 mps 755 mmHg 75%
    09:00 +10°C° 0 mm 5 mps 755 mmHg 68%
    10:00 +12°C° 0 mm 5 mps 755 mmHg 61%
    11:00 +13°C° 0 mm 6 mps 754 mmHg 54%
    12:00 +14°C° 0 mm 6 mps 754 mmHg 53%
    13:00 +14°C° 0 mm 6 mps 754 mmHg 51%
    14:00 +14°C° 0 mm 6 mps 754 mmHg 50%
    15:00 +13°C° 0 mm 5 mps 754 mmHg 55%
    16:00 +12°C° 0 mm 5 mps 754 mmHg 59%
    17:00 +10°C° 0 mm 5 mps 754 mmHg 64%
    18:00 +9°C° 0 mm 5 mps 754 mmHg 67%
    19:00 +9°C° 0 mm 6 mps 754 mmHg 69%
    20:00 +8°C° 0 mm 6 mps 754 mmHg 71%
    21:00 +8°C° 0 mm 6 mps 754 mmHg 73%
    22:00 +7°C° 0 mm 6 mps 754 mmHg 74%
    23:00 +7°C° 0 mm 6 mps 754 mmHg 76%

    Tomorrow, 14 November, Thursday

    Time Temperature Precipitation Wind Pressure Humidity
    00:00 +5°C° 0 mm 6 mps 754 mmHg 75%
    01:00 +5°C° 0 mm 6 mps 754 mmHg 75%
    02:00 +4°C° 0 mm 6 mps 754 mmHg 74%
    03:00 +4°C° 0 mm 6 mps 753 mmHg 72%
    04:00 +4°C° 0 mm 6 mps 753 mmHg 70%
    05:00 +3°C° 0 mm 6 mps 753 mmHg 68%
    06:00 +3°C° 0 mm 7 mps 753 mmHg 66%
    07:00 +3°C° 0 mm 7 mps 754 mmHg 65%
    08:00 +4°C° 0 mm 8 mps 754 mmHg 64%
    09:00 +5°C° 0 mm 8 mps 754 mmHg 57%
    10:00 +6°C° 0 mm 8 mps 753 mmHg 50%
    11:00 +9°C° 0 mm 8 mps 753 mmHg 44%
    12:00 +9°C° 0 mm 8 mps 753 mmHg 42%
    13:00 +9°C° 0 mm 8 mps 753 mmHg 40%
    14:00 +10°C° 0 mm 8 mps 753 mmHg 39%
    15:00 +9°C° 0 mm 8 mps 753 mmHg 42%
    16:00 +8°C° 0 mm 7 mps 753 mmHg 45%
    17:00 +6°C° 0 mm 7 mps 752 mmHg 48%
    18:00 +6°C° 0 mm 8 mps 753 mmHg 50%
    19:00 +5°C° 0 mm 8 mps 753 mmHg 51%
    20:00 +5°C° 0 mm 9 mps 753 mmHg 53%
    21:00 +3°C° 0 mm 9 mps 753 mmHg 53%
    22:00 +3°C° 0 mm 9 mps 753 mmHg 53%
    23:00 +3°C° 0 mm 9 mps 753 mmHg 53%

    Day after tomorrow, 15 November, Friday

    Time Temperature Precipitation Wind Pressure Humidity
    00:00 +3°C° 0 mm 9 mps 753 mmHg 54%
    01:00 +2°C° 0 mm 9 mps 753 mmHg 55%
    02:00 +2°C° 0 mm 9 mps 753 mmHg 56%
    03:00 +2°C° 0 mm 9 mps 753 mmHg 59%
    04:00 +2°C° 0 mm 9 mps 753 mmHg 61%
    05:00 +2°C° 0 mm 9 mps 753 mmHg 64%
    06:00 +2°C° 0 mm 9 mps 753 mmHg 64%
    07:00 +2°C° 0 mm 9 mps 753 mmHg 64%
    08:00 +2°C° 0 mm 9 mps 754 mmHg 64%
    09:00 +3°C° 0 mm 9 mps 754 mmHg 61%
    10:00 +5°C° 0 mm 9 mps 754 mmHg 57%
    11:00 +7°C° 0 mm 9 mps 754 mmHg 52%
    12:00 +7°C° 0 mm 9 mps 754 mmHg 50%
    13:00 +8°C° 0 mm 9 mps 754 mmHg 48%
    14:00 +8°C° 0 mm 9 mps 754 mmHg 46%
    15:00 +7°C° 0 mm 8 mps 754 mmHg 48%
    16:00 +8°C° 0 mm 7 mps 754 mmHg 50%
    17:00 +6°C° 0 mm 7 mps 754 mmHg 53%
    18:00 +5°C° 0 mm 7 mps 754 mmHg 55%
    19:00 +5°C° 0 mm 7 mps 754 mmHg 57%
    20:00 +4°C° 0 mm 7 mps 755 mmHg 58%
    21:00 +4°C° 0 mm 7 mps 755 mmHg 61%
    22:00 +4°C° 0 mm 6 mps 755 mmHg 63%
    23:00 +3°C° 0 mm 6 mps 755 mmHg 65%

    16 November, Saturday

    Time Temperature Precipitation Wind Pressure Humidity
    00:00 +3°C° 0 mm 6 mps 755 mmHg 67%
    01:00 +2°C° 0 mm 6 mps 755 mmHg 69%
    02:00 +2°C° 0 mm 6 mps 755 mmHg 71%
    03:00 +1°C° 0 mm 6 mps 755 mmHg 72%
    04:00 +1°C° 0 mm 6 mps 755 mmHg 73%
    05:00 0°C° 0 mm 7 mps 755 mmHg 74%
    06:00 0°C° 0 mm 7 mps 756 mmHg 75%
    07:00 0°C° 0 mm 7 mps 756 mmHg 75%
    08:00 0°C° 0 mm 7 mps 756 mmHg 76%
    09:00 +2°C° 0 mm 7 mps 756 mmHg 70%
    10:00 +4°C° 0 mm 7 mps 757 mmHg 64%
    11:00 +5°C° 0 mm 7 mps 757 mmHg 58%
    12:00 +6°C° 0 mm 7 mps 757 mmHg 55%
    13:00 +6°C° 0 mm 7 mps 756 mmHg 52%
    14:00 +8°C° 0 mm 7 mps 756 mmHg 49%
    15:00 +7°C° 0 mm 6 mps 756 mmHg 52%
    16:00 +5°C° 0 mm 6 mps 756 mmHg 55%
    17:00 +4°C° 0 mm 6 mps 756 mmHg 58%
    18:00 +4°C° 0 mm 6 mps 756 mmHg 59%
    19:00 +4°C° 0 mm 6 mps 757 mmHg 61%
    20:00 +3°C° 0 mm 6 mps 757 mmHg 62%
    21:00 +3°C° 0 mm 6 mps 757 mmHg 65%
    22:00 +2°C° 0 mm 6 mps 757 mmHg 68%
    23:00 +2°C° 0 mm 6 mps 757 mmHg 70%

    17 November, Sunday

    Time Temperature Precipitation Wind Pressure Humidity
    00:00 +2°C° 0 mm 5 mps 757 mmHg 74%
    01:00 +1°C° 0 mm 5 mps 757 mmHg 77%
    02:00 +1°C° 0 mm 5 mps 757 mmHg 80%
    03:00 +1°C° 0 mm 5 mps 757 mmHg 83%
    04:00 0°C° 0 mm 5 mps 757 mmHg 86%
    05:00 0°C° 0 mm 5 mps 757 mmHg 88%
    06:00 0°C° 0 mm 5 mps 758 mmHg 87%
    07:00 0°C° 0 mm 5 mps 758 mmHg 86%
    08:00 -1°C° 0 mm 6 mps 758 mmHg 85%
    09:00 +2°C° 0 mm 6 mps 758 mmHg 78%
    10:00 +4°C° 0 mm 6 mps 758 mmHg 71%
    11:00 +5°C° 0 mm 6 mps 758 mmHg 64%
    12:00 +7°C° 0 mm 6 mps 758 mmHg 61%
    13:00 +7°C° 0 mm 5 mps 758 mmHg 59%
    14:00 +8°C° 0 mm 5 mps 757 mmHg 56%
    15:00 +7°C° 0 mm 5 mps 757 mmHg 60%
    16:00 +6°C° 0 mm 5 mps 757 mmHg 64%
    17:00 +5°C° 0 mm 4 mps 757 mmHg 69%
    18:00 +5°C° 0 mm 4 mps 758 mmHg 71%
    19:00 +5°C° 0 mm 5 mps 758 mmHg 73%
    20:00 +5°C° 0 mm 5 mps 758 mmHg 75%
    21:00 +3°C° 0 mm 5 mps 758 mmHg 75%
    22:00 +4°C° 0 mm 4 mps 758 mmHg 75%
    23:00 +4°C° 0 mm 4 mps 757 mmHg 75%

    18 November, Monday

    Time Temperature Precipitation Wind Pressure Humidity
    00:00 +3°C° 0 mm 4 mps 757 mmHg 75%
    01:00 +3°C° 0 mm 4 mps 757 mmHg 74%
    02:00 +3°C° 0 mm 4 mps 757 mmHg 74%
    03:00 +3°C° 0 mm 4 mps 757 mmHg 72%
    04:00 +3°C° 0 mm 4 mps 756 mmHg 71%
    05:00 +1°C° 0 mm 4 mps 756 mmHg 69%
    06:00 +3°C° 0 mm 4 mps 756 mmHg 65%
    07:00 +2°C° 0 mm 5 mps 756 mmHg 60%
    08:00 +2°C° 0 mm 5 mps 756 mmHg 56%
    09:00 +5°C° 0 mm 5 mps 756 mmHg 48%
    10:00 +7°C° 0 mm 5 mps 756 mmHg 40%
    11:00 +8°C° 0 mm 6 mps 756 mmHg 31%
    12:00 +9°C° 0 mm 6 mps 756 mmHg 28%
    13:00 +10°C° 0 mm 6 mps 755 mmHg 25%
    14:00 +10°C° 0 mm 5 mps 755 mmHg 21%
    15:00 +9°C° 0 mm 5 mps 755 mmHg 27%
    16:00 +7°C° 0 mm 5 mps 755 mmHg 32%
    17:00 +6°C° 0 mm 5 mps 755 mmHg 37%
    18:00 +5°C° 0 mm 5 mps 755 mmHg 40%
    19:00 +5°C° 0 mm 5 mps 755 mmHg 43%
    20:00 +3°C° 0 mm 5 mps 755 mmHg 46%
    21:00 +4°C° 0 mm 4 mps 754 mmHg 47%
    22:00 +4°C° 0 mm 4 mps 754 mmHg 48%
    23:00 +3°C° 0 mm 4 mps 754 mmHg 48%
    Show more